Location: Chippewa Lake
(41.0698°N, 81.9010°W)
Time: 02:04:43
(UTC+00:00)

Cosmos 2184 Rocket - Pass Details

Date: 09 May 2021
Orbit: 958 x 1003 km, 82.9° (Epoch: 24 June)

Event Time Altitude Azimuth Distance (km) Brightness Sun altitude
Rises 02:45:31 0° 358° (N) 3,685 7.8 -21.0°
Reaches altitude 10° 02:48:12 10° 5° (N) 2,727 6.9 -21.3°
Maximum altitude 02:54:08 45° 77° (ENE) 1,301 4.4 -22.0°
Enters shadow 02:55:32 39° 111° (ESE) 1,417 4.4 -22.2°
